Date String (YYYY-MM-DD hh:mm:ss) UTC,Instrument flags,Ambient pressure (hPa),Sample flow (lpm),Bypass flow (lpm),Sample temperature (°C),Ambient temperature (°C),ASC tube jacket temperature (°C),LED temperature (°C),Box temperature (°C),Sample RH (%),Span deviation,Mass concentration (μg/m³),Mass concentration (μg/m³),Mass concentration (μg/m³)
DateTimeUTC,F1_M11,P_M11,Q1_M11,Q2_M11,T1_M11,T2_M11,T3_M11,T4_M11,T5_M11,U1_M11,ZSPAN_M11,X0_M11,X2_M11,X1_M11
2021-11-02 03:00:00,,0833.7,5.00,0.00,22.8,22.0,00.0,31.9,24.6,20.8,0000.0,0009.77,0005.46,0005.04
2021-11-02 03:01:00,,0833.7,5.00,0.00,22.8,22.0,00.0,31.9,24.5,20.8,0000.0,0009.69,0005.53,0005.08
2021-11-02 03:02:00,,0833.7,5.00,0.00,22.8,21.9,00.0,31.9,24.5,20.8,0000.0,0009.82,0005.57,0005.10
2021-11-02 03:03:00,,0833.7,5.01,0.00,22.7,21.9,00.0,31.9,24.5,20.8,0000.0,0009.65,0005.59,0005.08
2021-11-02 03:04:00,,0833.7,5.00,0.00,22.7,21.9,00.0,31.8,24.5,20.8,0000.0,0009.98,0005.58,0005.07
2021-11-02 03:05:00,,0833.7,5.00,0.00,22.7,21.9,00.0,31.8,24.5,20.8,0000.0,0010.23,0005.54,0005.05
2021-11-02 03:06:00,,0833.7,4.99,0.00,22.7,21.9,00.0,31.8,24.5,20.9,0000.0,0010.54,0005.49,0005.00
2021-11-02 03:07:00,,0833.7,5.01,0.00,22.7,21.9,00.0,31.8,24.5,21.0,0000.0,0010.57,0005.51,0004.99
2021-11-02 03:08:00,,0833.7,5.00,0.00,22.7,21.9,00.0,31.8,24.5,21.0,0000.0,0010.60,0005.53,0004.99
2021-11-02 03:09:00,,0833.7,5.00,0.00,22.7,21.9,00.0,31.8,24.5,21.0,0000.0,0010.41,0005.51,0004.96
2021-11-02 03:10:00,,0833.7,5.00,0.00,22.7,21.9,00.0,31.8,24.5,21.0,0000.0,0010.43,0005.47,0004.92
2021-11-02 03:11:00,,0833.7,5.00,0.00,22.7,22.0,00.0,31.8,24.5,21.1,0000.0,0010.55,0005.46,0004.89
2021-11-02 03:12:00,,0833.7,5.00,0.00,22.7,22.0,00.0,31.8,24.5,21.1,0000.0,0010.52,0005.46,0004.88
2021-11-02 03:13:00,,0833.7,5.00,0.00,22.7,22.0,00.0,31.8,24.5,21.1,0000.0,0010.46,0005.46,0004.86
2021-11-02 03:14:00,,0833.7,5.00,0.00,22.7,22.0,00.0,31.8,24.5,21.1,0000.0,0010.50,0005.45,0004.87
2021-11-02 03:15:00,,0833.7,5.01,0.00,22.7,22.0,00.0,31.8,24.5,21.1,0000.0,0010.40,0005.47,0004.88
2021-11-02 03:16:00,,0833.7,4.99,0.00,22.7,21.9,00.0,31.8,24.5,21.0,0000.0,0010.15,0005.49,0004.88
2021-11-02 03:17:00,,0833.8,5.00,0.00,22.7,21.9,00.0,31.8,24.5,21.0,0000.0,0009.68,0005.49,0004.88
2021-11-02 03:18:00,,0833.7,4.99,0.00,22.7,21.9,00.0,31.8,24.5,21.0,0000.0,0009.63,0005.45,0004.85
2021-11-02 03:19:00,,0833.7,4.99,0.00,22.7,21.9,00.0,31.7,24.4,21.0,0000.0,0009.60,0005.41,0004.82
2021-11-02 03:20:00,,0833.7,5.01,0.00,22.6,21.9,00.0,31.7,24.4,21.0,0000.0,0009.56,0005.43,0004.82
2021-11-02 03:21:00,,0833.7,5.00,0.00,22.6,21.9,00.0,31.7,24.4,21.0,0000.0,0009.38,0005.42,0004.83
2021-11-02 03:22:00,,0833.7,4.99,0.00,22.6,21.8,00.0,31.7,24.4,21.1,0000.0,0009.22,0005.40,0004.84
2021-11-02 03:23:00,,0833.8,5.01,0.00,22.6,21.8,00.0,31.7,24.3,21.1,0000.0,0009.15,0005.41,0004.87
2021-11-02 03:24:00,,0833.8,5.00,0.00,22.6,21.8,00.0,31.7,24.3,21.1,0000.0,0009.11,0005.40,0004.88
2021-11-02 03:25:00,,0833.8,5.00,0.00,22.6,21.7,00.0,31.7,24.3,21.1,0000.0,0009.37,0005.40,0004.89
2021-11-02 03:26:00,,0833.9,4.99,0.00,22.6,21.7,00.0,31.7,24.3,21.1,0000.0,0009.09,0005.37,0004.88
2021-11-02 03:27:00,,0833.8,5.00,0.00,22.6,21.8,00.0,31.7,24.3,21.2,0000.0,0009.47,0005.38,0004.89
2021-11-02 03:28:00,,0833.8,4.99,0.00,22.6,21.8,00.0,31.7,24.3,21.2,0000.0,0009.50,0005.39,0004.90
2021-11-02 03:29:00,,0833.8,5.00,0.00,22.5,21.7,00.0,31.7,24.3,21.2,0000.0,0009.48,0005.40,0004.90
2021-11-02 03:30:00,,0833.8,4.99,0.00,22.5,21.7,00.0,31.7,24.2,21.2,0000.0,0009.49,0005.41,0004.91
2021-11-02 03:31:00,,0833.8,4.99,0.00,22.5,21.7,00.0,31.6,24.2,21.2,0000.0,0009.49,0005.41,0004.91
2021-11-02 03:32:00,,0833.8,5.00,0.00,22.5,21.6,00.0,31.6,24.2,21.3,0000.0,0009.76,0005.45,0004.91
2021-11-02 03:33:00,,0833.9,5.00,0.00,22.5,21.6,00.0,31.6,24.2,21.3,0000.0,0010.17,0005.46,0004.89
2021-11-02 03:34:00,,0833.8,5.01,0.00,22.4,21.6,00.0,31.6,24.2,21.3,0000.0,0010.68,0005.43,0004.87
2021-11-02 03:35:00,,0833.9,5.00,0.00,22.4,21.6,00.0,31.6,24.2,21.3,0000.0,0011.24,0005.44,0004.86
2021-11-02 03:36:00,,0833.9,5.00,0.00,22.4,21.7,00.0,31.6,24.2,21.2,0000.0,0010.91,0005.45,0004.85
2021-11-02 03:37:00,,0833.9,4.99,0.00,22.4,21.7,00.0,31.6,24.2,21.2,0000.0,0010.87,0005.48,0004.85
2021-11-02 03:38:00,,0833.9,5.01,0.00,22.5,21.7,00.0,31.6,24.2,21.3,0000.0,0010.57,0005.49,0004.86
2021-11-02 03:39:00,,0833.9,4.98,0.00,22.5,21.8,00.0,31.6,24.3,21.3,0000.0,0010.55,0005.52,0004.88
2021-11-02 03:40:00,,0833.8,4.99,0.00,22.5,21.8,00.0,31.6,24.3,21.3,0000.0,0011.11,0005.61,0004.94
2021-11-02 03:41:00,,0833.9,5.01,0.00,22.5,21.8,00.0,31.6,24.3,21.3,0000.0,0011.24,0005.67,0004.99
2021-11-02 03:42:00,,0833.9,4.99,0.00,22.5,21.8,00.0,31.6,24.3,21.3,0000.0,0011.57,0005.72,0005.04
2021-11-02 03:43:00,,0834.0,5.01,0.00,22.5,21.9,00.0,31.6,24.3,21.3,0000.0,0011.69,0005.73,0005.09
2021-11-02 03:44:00,,0833.9,4.99,0.00,22.5,21.9,00.0,31.6,24.3,21.3,0000.0,0011.36,0005.78,0005.14
2021-11-02 03:45:00,,0833.9,5.01,0.00,22.5,21.9,00.0,31.6,24.3,21.3,0000.0,0011.07,0005.91,0005.20
2021-11-02 03:46:00,,0834.0,5.00,0.00,22.5,21.8,00.0,31.6,24.3,21.4,0000.0,0010.78,0006.01,0005.27
2021-11-02 03:47:00,,0834.0,5.00,0.00,22.5,21.8,00.0,31.6,24.3,21.4,0000.0,0010.78,0006.05,0005.33
2021-11-02 03:48:00,,0834.0,5.00,0.00,22.5,21.8,00.0,31.6,24.3,21.4,0000.0,0010.77,0006.12,0005.40
2021-11-02 03:49:00,,0834.0,5.01,0.00,22.5,21.9,00.0,31.6,24.3,21.4,0000.0,0010.67,0006.15,0005.46
2021-11-02 03:50:00,,0834.0,4.98,0.00,22.5,21.9,00.0,31.6,24.4,21.4,0000.0,0010.76,0006.19,0005.48
2021-11-02 03:51:00,,0834.0,5.00,0.00,22.6,21.9,00.0,31.6,24.4,21.4,0000.0,0010.29,0006.17,0005.47
2021-11-02 03:52:00,,0834.0,5.00,0.00,22.6,21.9,00.0,31.6,24.4,21.3,0000.0,0010.29,0006.15,0005.49
2021-11-02 03:53:00,,0834.1,5.01,0.00,22.6,22.0,00.0,31.6,24.4,21.4,0000.0,0009.85,0006.13,0005.50
2021-11-02 03:54:00,,0834.0,4.99,0.00,22.6,22.0,00.0,31.6,24.4,21.3,0000.0,0009.76,0006.16,0005.52
2021-11-02 03:55:00,,0834.0,5.01,0.00,22.6,22.0,00.0,31.6,24.5,21.3,0000.0,0010.11,0006.14,0005.53
2021-11-02 03:56:00,,0834.0,5.00,0.00,22.6,22.0,00.0,31.6,24.5,21.4,0000.0,0010.83,0006.07,0005.54
2021-11-02 03:57:00,,0834.0,5.01,0.00,22.6,22.0,00.0,31.6,24.5,22.2,0000.0,0010.74,0006.02,0005.53
2021-11-02 03:58:00,,0834.1,4.99,0.00,22.6,22.0,00.0,31.6,24.5,23.2,0000.0,0010.71,0006.03,0005.54
2021-11-02 03:59:00,,0834.1,5.00,0.00,22.6,22.0,00.0,31.6,24.5,22.0,0000.0,0011.03,0006.03,0005.54
